Погода в Трубчевске

Погода в Трубчевске : погода сейчас, прогноз погоды и архив. Всё, что Вы хотите узнать о погоде в Трубчевске!

Хотите узнать прогноз погоды в Трубчевске? Тогда Вам сюда: Погода в Трубчевске

Поиск расширенной информации на нашем сайте:

Другие новости

Новости СМИ2

Главная страница сайта

Новости сайта

03.07.2017

Напоминаем, что на нашем специализированном сайте Метеоцентр.Азия вы можете получить высокодетализированные автоматические прогнозы погоды по пунктам России, СНГ и мира в авиационном формате (включающие направление и скорость ветра, видимость, явления погоды, количество и форму облачности, нижнюю и верхнюю границу облачности).


Погода в Трубчевске - сегодня

Время (UTC), дата Ветер
(°,м/с) 
Видим.   Явления Облачность Т
(°С)
Тd
(°С)
f(%) Тe
(°С)
Pmin
(гПа)
dP
(гПа)
Po
(мм)
O2
(г/м3)
Тmin Tmax R s Состояние
почвы
21 17.04.18 200 (Ю) 26000 м    10/10 540 м кучево-дожд. 
[Cb cap]
+13.1 +3.8 53 +14  1015.3  -1.2  746  286           
06 18.04.18 300 (СЗ) 6-10{13}  15000 м  {ливн. осадки}  8/4 300 м кучево-дожд., средняя 
[Cb cap|Ac trans]
+9.4 +5.2 75 +8  1015.7  746  290  +9    11     
18 18.04.18 290 (З) 5{10}  17000 м    8/8 500 м кучево-дожд. 
[Cb cap]
+10 +4.9 71 +9  1015  -0.4  745  289    +14       
06 19.04.18 320 (СЗ) 6{11}  9000 м  дымка{ливн. осадки}  10/10 480 м кучево-дожд. 
[Cb cap]
+7.2 +5.2 87 +5  1008.2  -0.7  740  290  +7       
18 19.04.18 340 (С) 6-10{12}  13000 м    8/8 500 м кучево-дожд. 
[Cb cap]
+8.5 +4.9 78 +7  1010.8  1.9  742  289    +8.7     
21 19.04.18 340 (С) 6{11}  н/о    н/о 
+5.6 +2.2 79 +3  1012.5  1.3  743  293           
00 20.04.18 340 (С) 5{11}  14000 м    ясно 
+6.9 +3.1 77 +5  1013  0.6  743  292           
21 20.04.18 280 (З) 27000 м    ясно 
+10.1 +0.2 50 +11  1016.7  -0.1  746  290           
00 21.04.18 260 (З) 18000 м    ясно 
+8.2 +2.8 69 +9  1015.1  -1.6  745  291           
09 21.04.18 240 (ЮЗ) 5-11{12}  30000 м    ясно 
+17.9 +5.1 43 +18  1006.4  -4.3  739  279           
18 21.04.18 310 (СЗ) 10-17{17}  26000 м  в посл. час гроза{ливн. осадки}  3/3 300 м кучево-дожд. 
[Cb cap]
+15.9 +6.5 54 +15  998.3  0.9  733  278    +21.7     
21 21.04.18 320 (СЗ) 9-15{19}  26000 м    ясно 
+12.4 +3.2 53 +11  1002.6  4.2  736  283           
00 22.04.18 300 (СЗ) 4{15}  22000 м    ясно 
+10 +2.5 60 +9  1004  1.3  737  286           
06 22.04.18 300 (СЗ) 23000 м    5/4 1000 м верхняя 
[Cu med, cong|Ci sp]
+8.6 +1 59 +7  1005.1  0.8  738  288           
18 22.04.18 020 (С) 4{15}  10 км  {гроза, ливн. осадки}  3/0 средняя 
[Ac trans]
+5.7 +3.3 85 +4  1008.8  3.4  740  292    +12.9     
21 22.04.18 310 (СЗ) 9000 м  дымка  6/0 средняя 
[Ac trans]
+5.9 +3.8 86 +5  1010.3  1.5  742  292           
09 23.04.18 340 (С) 29000 м    3/3 1000 м 
[Cu med, cong]
+6.3 -4.4 46 +5  1016.2  0.6  746  294           
12 23.04.18 320 (СЗ) 30000 м    1/1 1000 м 
[Cu hum]
+8.8 -4.7 38 +9  1015.6  -0.4  746  291           
15 23.04.18 310 (СЗ) 35000 м    1/0 верхняя 
[Ci fib]
+9.8 -7.4 29 +9  1014.9  -0.5  745  291           
21 23.04.18 тихо ()   18000 м    ясно 
+2.1 -2.9 69 +2  1015.7  -0.4  745  298           
00 24.04.18 170 (Ю) 9000 м  дымка  ясно 
-0.2 -2.3 86 1016.2  0.3  745  301           
09 24.04.18 180 (Ю) 30000 м    8/5 300 м кучево-дожд., средняя 
[Cb cap|Ac trans]
+12 +0.1 44 +13  1013.8  -0.5  744  287           
12 24.04.18 170 (Ю) 30000 м    10/0 средняя 
[Ac As]
+13.2 -1.4 36 +13  1012  -1.7  743  286           
15 24.04.18 180 (Ю) 30000 м    8/0 средняя 
[Ac trans]
+14.1 -0.6 36 +14  1010  -1.8  742  284           
21 24.04.18 230 (ЮЗ) 18000 м    8/0 средняя 
[Ac trans]
+11 +5.6 69 +12  1009.7  741  286           
Время (UTC), дата Ветер
(°,м/с) 
Видим.   Явления Облачность Т
(°С)
Тd
(°С)
f(%) Тe
(°С)
Pmin
(гПа)
dP
(гПа)
Po
(мм)
O2
(г/м3)
Тmin Tmax R s Состояние
почвы

Для получения пояснительной информации подведите курсор к названию столбца.

ПОГОДА в Трубчевске - архив

Всё, что Вы хотите узнать о погоде в Трубчевске - удобно и подробно!

Выберите нужную дату (начиная с 1 января 2015* года) и нажмите кнопку "Найти".
Будут отображены архивные сводки погоды по пункту Трубчевск, начиная с указанной даты.


Отображать данные в формате CSV (для использования в таблицах Excel)


Внимание! Наш архив погоды предназначен исключительно для личного некоммерческого использования в познавательных целях. Если Вам необходимы официальные справки о состоянии погоды (для производственных, юридических, коммерческих и т.п. целей), обращайтесь в органы Росгидромета.

*Примечание: данная дата относится к архиву по метеостанциям СССР (Россия, СНГ, Балтия).
Архив по метеостанциям Зарубежной Европы и Азии (кроме Китая) хранится 10 дней, по другим регионам земного шара (Китай, Африка, Америка, Австралия, Океания) - 1 день.

Трубчевск - район местоположения метеостанции


Название, широта, долгота, высота метеостанции:
Трубчевск 52.6°ш. 33.8°д. 178 м над ур. моря [Российская Федерация]

Дополнительная информация

В oтличие oт бoльшинства пoгoдных сайтoв мы публикуем пoдрoбную метеoинфoрмацию в детальнoм прoфессиoнальнoм фoрмате.

Характеристики температуры и влажнoсти вoздуха измеряются на высoте 2 м в тени вдали oт зданий и деревьев.
Скoрoсть ветра измеряется на высoте 10 м (на урoвне рoста челoвека скoрoсть ветра ниже в 1.5-2 раза). Если метеoстанция нахoдится в гoрoде или в лесу, тo скoрoсть ветра занижена на 2-4 м/с пo сравнению с oткрытым местoм. Скoрoсть ветра над акватoриями крупных рек и oзёр, а также на вершинах хoлмoв на 2-5 м/с выше, чем в oбычных услoвиях.
Атмoсфернoе давление в разных тoчках местнoсти мoжет значительнo oтличаться oт давления на метеoстанции, в зависимoсти oт услoвий рельефа (при пoдъёме на 10 м давление пoнижается примернo на 1 мм рт.ст.).